Eagle Creek, IN

4:33 AM EDT on May 24, 2018 (GMT -0400)
Eagle Creek

Weather History for KEYE - November, 2012

Change the Weather History Date:

Sunday, November 11, 2012

  Actual Average Record
Temperature  
Mean Temperature 60 °F 46 °F  
Max Temperature 66 °F 54 °F 74 °F (2010)
Min Temperature 53 °F 38 °F 24 °F (1996)
Degree Days  
Heating Degree Days 5 19  
Month to date heating degree days 234 188  
Since 1 July heating degree days 734 580  
Cooling Degree Days 0 0  
Month to date cooling degree days 0 0  
Year to date cooling degree days 1339 1058  
Growing Degree Days 8 (Base 50)    
Moisture  
Dew Point 44 °F    
Average Humidity 54    
Maximum Humidity 64    
Minimum Humidity 43    
Precipitation  
Precipitation 0.02 in 0.12 in 1.07 in (1992)
Month to date precipitation 0.23 1.32  
Year to date precipitation 34.07 35.33  
Sea Level Pressure  
Sea Level Pressure 30.05 in    
Wind  
Wind Speed 11 mph (South)    
Max Wind Speed 21 mph    
Max Gust Speed 33 mph    
Visibility 10 miles    
Events Rain    
T = Trace of Precipitation, MM = Missing Value Source: NWS Daily Summary

Daily Weather History Graph

Daily Weather History Graph

Search for Another Location

Airport or City:

Astronomy

Nov. 11, 2012 Rise Set
Actual Time 7:25 AM EST 5:32 PM EST
Civil Twilight 6:57 AM EST 6:00 PM EST
Nautical Twilight 6:24 AM EST 6:33 PM EST
Astronomical Twilight 5:52 AM EST 7:05 PM EST
Moon 4:39 AM EST (11/11) 3:55 PM EST (11/11)
Length of Visible Light 11h 03m
Length of Day
10h 06m
Waning Crescent, 7% of the Moon is Illuminated
Nov 11
Waning Crescent
Nov 13
New
Nov 20
First Quarter
Nov 28
Full
Dec 6
Last Quarter

Hourly Weather History & Observations

Time (EST) Temp. Dew Point Humidity Pressure Visibility Wind Dir Wind Speed Gust Speed Precip Events Conditions
12:53 AM 59.0 °F 43.0 °F 55% 30.07 in 10.0 mi South 10.4 mph 19.6 mph N/A   Clear
1:53 AM 57.9 °F 42.1 °F 56% 30.07 in 10.0 mi South 9.2 mph - N/A   Clear
2:53 AM 57.9 °F 42.1 °F 56% 30.08 in 10.0 mi South 6.9 mph - N/A   Clear
3:53 AM 57.0 °F 42.1 °F 57% 30.09 in 10.0 mi South 6.9 mph - N/A   Clear
4:53 AM 55.0 °F 42.1 °F 62% 30.10 in 10.0 mi South 5.8 mph - N/A   Clear
5:53 AM 55.0 °F 41.0 °F 59% 30.12 in 10.0 mi South 5.8 mph - N/A   Clear
6:53 AM 54.0 °F 41.0 °F 62% 30.13 in 10.0 mi South 4.6 mph - N/A   Clear
7:53 AM 53.1 °F 41.0 °F 64% 30.13 in 10.0 mi SSE 6.9 mph - N/A   Clear
8:53 AM 55.0 °F 41.0 °F 59% 30.13 in 10.0 mi SSE 11.5 mph 17.3 mph N/A   Scattered Clouds
9:53 AM 57.9 °F 43.0 °F 58% 30.14 in 10.0 mi South 9.2 mph 17.3 mph N/A   Mostly Cloudy
10:53 AM 60.1 °F 44.1 °F 55% 30.13 in 10.0 mi South 15.0 mph 20.7 mph N/A   Overcast
11:53 AM 62.1 °F 45.0 °F 53% 30.09 in 10.0 mi South 17.3 mph 26.5 mph N/A   Partly Cloudy
12:53 PM 64.9 °F 46.0 °F 50% 30.05 in 10.0 mi South 19.6 mph 25.3 mph N/A   Clear
1:53 PM 64.9 °F 46.0 °F 50% 30.04 in 10.0 mi South 18.4 mph 26.5 mph N/A   Clear
2:53 PM 64.0 °F 46.0 °F 52% 30.02 in 10.0 mi South 13.8 mph 27.6 mph N/A   Clear
3:53 PM 64.9 °F 46.0 °F 50% 30.01 in 10.0 mi South 10.4 mph 24.2 mph N/A   Clear
4:53 PM 64.9 °F 46.0 °F 50% 29.99 in 10.0 mi South 15.0 mph 21.9 mph N/A   Clear
5:53 PM 64.0 °F 46.0 °F 52% 29.97 in 10.0 mi SSE 11.5 mph 21.9 mph N/A   Clear
6:53 PM 62.1 °F 44.1 °F 52% 29.97 in 10.0 mi SSE 12.7 mph 21.9 mph N/A   Clear
7:53 PM 62.1 °F 42.1 °F 48% 29.97 in 10.0 mi South 10.4 mph 25.3 mph N/A   Clear
8:53 PM 62.1 °F 39.9 °F 44% 29.96 in 10.0 mi SSE 16.1 mph 23.0 mph N/A   Overcast
9:53 PM 63.0 °F 41.0 °F 45% 29.96 in 10.0 mi South 12.7 mph 18.4 mph N/A   Overcast
10:53 PM 63.0 °F 44.1 °F 50% 29.96 in 10.0 mi South 16.1 mph 27.6 mph 0.00 in Rain Light Rain
11:53 PM 57.0 °F 51.1 °F 81% 29.96 in 5.0 mi South 8.1 mph - 0.01 in Rain Light Rain